OBJECT S, 62393

Orbit data source: Space-Track

You're viewing an Uncataloged Satellite

Recently launched and/or uncataloged satellites may have evolving metadata. Metadata may include but not limited to: Owner, Maufacturer, Bus, Motor, and Mission.

OBJECT S, 62393 is a satellite in LEO that was launched on Sat, 21 Dec 2024 UTC via an FALCON 9 launch vehicle from the Air Force Western Test Range (AFWTR). Unknown objects in Earth's orbit typically refer to objects detected orbiting the Earth but have not yet been identified or cataloged. These objects could be anything from previously untracked satellites, spent rocket stages, debris from satellite collisions, or even natural meteoroids temporarily captured by Earth's gravity.

Loading next visibility...
Identifier
62393, 2024-247S
Orbit
LEO
Country
Flag of TBDTBD
Related business
None
Manufacturer
Unknown
Mission
Operational Commercial Communications
Bus & Motor
Unknown
Mass
Unknown
Launch date (UTC)
2024-12-21 (1 year ago)
Launch vehicle
FALCON 9
Launch site
Air Force Western Test Range (AFWTR)
Object type
Unknown
Shape & HBR
Box, 0.0 m
Radar Cross Section
0.004 m², Small (<0.1 m²)

Expand to show TLE details & history
Last TLE update: 11 hours ago

TLE from 11 hours ago
0 OBJECT S
1 62393U 24247S   25346.91171828  .00065717  00000-0  14361-2 0  9992
2 62393  44.9735 209.3220 0007278 172.4513 187.6487 15.43346782 54713
Epoch: 2025-12-12T21:52Z
TLE epoch observation values (Epoch: 2025-12-12T21:52:52.459Z)
Latitude
0.00003°
Longitude
159.2569°
Altitude
441.151 km
Speed
7.646 km/s
True Right ascension
13h 57m 17s
True Declination
0° 00' 00"
Sunlit
Object was in daylight at epoch
Visualization orbit readout
Latitude
Unknown
Longitude
Unknown
Altitude
Unknown
Speed
Unknown
Apparent Right ascension
Unknown
Apparent Declination
Unknown
Sunlit
N/A
Visualization observer readout
Local Sidereal Time
07:35:04
Azimuth
Unknown
Elevation
Unknown
Doppler factor
Unknown
Orbital elements
Apogee altitude
442.825 km
Perigee altitude
432.904 km
Semi-major axis
6,816.002 km
Eccentricity
0.00073
Inclination
44.9735°
RAAN
209.322°
Arg. of periapsis
172.4513°
True anomaly
187.63761°
Mean anomaly
187.6487°
Eccentric anomaly
187.64315°
Mean motion
3.85699 °/min
Orbital period
93.34 mins
BSTAR
0.0014361
Loading maneuver chart data...
Computing Atmospheric mass density...
Loading historical data...
Loading historical data...
Loading historical data...
Loading historical data...
Loading historical data...
Loading historical data...
Loading historical data...

Documentation

Showing up to 5 results
|